TimeMST,TemperatureF,Dew PointF,Humidity,Sea Level PressureIn,VisibilityMPH,Wind Direction,Wind SpeedMPH,Gust SpeedMPH,PrecipitationIn,Events,Conditions,WindDirDegrees,DateUTC
12:53 AM,25.0,18.0,75,30.34,7.0,SE,3.5,-,N/A,,Overcast,140,2013-11-24 07:53:00
1:53 AM,26.1,18.0,71,30.30,8.0,SSE,4.6,-,N/A,,Mostly Cloudy,150,2013-11-24 08:53:00
2:53 AM,26.1,18.0,71,30.27,10.0,SSW,10.4,-,N/A,,Mostly Cloudy,200,2013-11-24 09:53:00
3:53 AM,24.1,19.0,81,30.24,8.0,SSW,6.9,-,N/A,,Scattered Clouds,210,2013-11-24 10:53:00
4:53 AM,24.1,18.0,77,30.23,9.0,SE,4.6,-,N/A,,Scattered Clouds,140,2013-11-24 11:53:00
5:53 AM,27.0,19.9,75,30.19,9.0,Calm,Calm,-,N/A,,Mostly Cloudy,0,2013-11-24 12:53:00
6:53 AM,21.9,19.0,89,30.21,5.0,WNW,5.8,-,N/A,,Mostly Cloudy,300,2013-11-24 13:53:00
7:53 AM,23.0,19.0,85,30.22,7.0,Calm,Calm,-,N/A,,Overcast,0,2013-11-24 14:53:00
8:53 AM,23.0,19.0,85,30.21,5.0,North,3.5,-,N/A,,Overcast,350,2013-11-24 15:53:00
9:53 AM,24.1,19.0,81,30.20,6.0,SSW,4.6,-,N/A,,Haze,200,2013-11-24 16:53:00
10:53 AM,27.0,21.0,78,30.14,5.0,West,4.6,-,N/A,,Haze,260,2013-11-24 17:53:00
11:53 AM,30.0,21.9,72,30.09,5.0,Calm,Calm,-,N/A,,Haze,0,2013-11-24 18:53:00
12:53 PM,32.0,23.0,69,30.06,10.0,North,3.5,-,N/A,,Overcast,360,2013-11-24 19:53:00
1:53 PM,33.1,23.0,66,30.03,8.0,Variable,3.5,-,N/A,,Overcast,0,2013-11-24 20:53:00
2:53 PM,34.0,23.0,64,30.03,10.0,North,5.8,-,N/A,,Overcast,360,2013-11-24 21:53:00
3:53 PM,32.0,23.0,69,30.05,10.0,NNE,3.5,-,N/A,,Overcast,20,2013-11-24 22:53:00
4:53 PM,32.0,23.0,69,30.04,10.0,Calm,Calm,-,N/A,,Overcast,0,2013-11-24 23:53:00
5:53 PM,33.1,24.1,70,30.03,7.0,West,6.9,-,N/A,,Overcast,270,2013-11-25 00:53:00
6:53 PM,33.1,24.1,70,30.06,6.0,WNW,5.8,-,N/A,,Overcast,290,2013-11-25 01:53:00
7:53 PM,33.1,24.1,70,30.06,6.0,West,8.1,-,N/A,,Overcast,270,2013-11-25 02:53:00
8:53 PM,34.0,25.0,70,30.06,7.0,WNW,5.8,-,N/A,,Overcast,290,2013-11-25 03:53:00
9:53 PM,34.0,24.1,67,30.07,7.0,Calm,Calm,-,N/A,,Overcast,0,2013-11-25 04:53:00
10:53 PM,35.1,23.0,61,30.06,8.0,NW,5.8,-,N/A,,Overcast,320,2013-11-25 05:53:00
11:53 PM,36.0,19.9,52,30.06,10.0,North,11.5,-,N/A,,Overcast,350,2013-11-25 06:53:00